Weather History for KBTV - November, 2011

Change the Weather History Date:

Wednesday, November 23, 2011

  Actual Average Record
Temperature  
Mean Temperature 31 °F 36 °F  
Max Temperature 34 °F 42 °F 68 °F (1953)
Min Temperature 28 °F 29 °F 2 °F (1972)
Degree Days  
Heating Degree Days 34 29  
Month to date heating degree days 505 585  
Since 1 July heating degree days 1055 1326  
Cooling Degree Days 0 0  
Month to date cooling degree days 0 0  
Year to date cooling degree days 628 491  
Moisture  
Dew Point 30 °F    
Average Humidity 91    
Maximum Humidity 96    
Minimum Humidity 85    
Precipitation  
Precipitation 0.72 in 0.10 in 1.32 in (1924)
Month to date precipitation 1.23 2.47  
Year to date precipitation 48.49 33.78  
Snow  
Snow 4.70 in 0.30 in 7.50 in (1943)
Month to date snowfall 5.0 3.1  
Since 1 July snowfall 5.1 3.4  
Since 1 September snowfall 5.1 3.4  
Snow Depth 4.00 in    
Sea Level Pressure  
Sea Level Pressure 29.91 in    
Wind  
Wind Speed 7 mph (North)    
Max Wind Speed 18 mph    
Max Gust Speed 24 mph    
Visibility 3 miles    
Events Fog , Rain , Snow    
T = Trace of Precipitation, MM = Missing Value Source: NWS Daily Summary

Daily Weather History Graph

Daily Weather History Graph

Search for Another Location

Airport or City:

Trip Planner

Search our weather history database for the weather conditions in past years. The results will help you decide how hot, cold, wet, or windy it might be!

Date:

Astronomy

Nov. 23, 2011 Rise Set
Actual Time 6:58 AM EST 4:18 PM EST
Civil Twilight 6:26 AM EST 4:50 PM EST
Nautical Twilight 5:50 AM EST 5:26 PM EST
Astronomical Twilight 5:16 AM EST 6:01 PM EST
Moon 4:57 AM EST 2:59 PM EST
Length of Visible Light 10h 24m
Length of Day
9h 19m
Waning Crescent, 4% of the Moon is Illuminated
Nov 23
Waning Crescent
Nov 25
New
Dec 2
First Quarter
Dec 10
Full
Dec 17
Last Quarter

Hourly Weather History & Observations

Time (EST) Temp. Windchill Dew Point Humidity Pressure Visibility Wind Dir Wind Speed Gust Speed Precip Events Conditions
12:40 AM 28.4 °F - 26.6 °F 93% 30.13 in 0.8 mi Calm Calm - 0.02 in Snow Light Snow
12:54 AM 28.0 °F - 26.1 °F 92% 30.14 in 0.8 mi Calm Calm - 0.04 in Snow Light Snow
1:09 AM 28.4 °F - 26.6 °F 93% 30.12 in 1.0 mi Calm Calm - 0.01 in Snow Light Snow
1:16 AM 28.4 °F - 26.6 °F 93% 30.11 in 0.8 mi Calm Calm - 0.02 in Snow Light Snow
1:54 AM 28.9 °F - 27.0 °F 92% 30.09 in 0.8 mi Calm Calm - 0.07 in Snow Light Snow
2:43 AM 30.2 °F - 28.4 °F 93% 30.04 in 0.5 mi Calm Calm - N/A Fog , Snow Snow
2:54 AM 30.0 °F - 28.0 °F 92% 30.04 in 0.5 mi Calm Calm - 0.09 in Fog , Snow Snow
3:22 AM 32.0 °F 26.4 °F 30.2 °F 93% 29.97 in 0.8 mi East 5.8 mph - 0.04 in Snow Light Snow
3:31 AM 33.8 °F 28.6 °F 30.2 °F 87% 29.97 in 1.2 mi ESE 5.8 mph - 0.05 in Snow Light Snow
3:54 AM 33.1 °F 28.7 °F 30.9 °F 92% 29.96 in 1.0 mi ESE 4.6 mph - 0.09 in Snow Light Snow
4:03 AM 33.8 °F 30.8 °F 30.2 °F 87% 29.95 in 1.5 mi ESE 3.5 mph - 0.02 in Snow Light Snow
4:21 AM 33.8 °F - 30.2 °F 87% 29.94 in 1.2 mi Calm Calm - 0.04 in Snow Light Snow
4:37 AM 33.8 °F 30.8 °F 30.2 °F 87% 29.93 in 1.0 mi East 3.5 mph - 0.06 in Snow Light Snow
4:54 AM 32.0 °F 28.7 °F 30.9 °F 96% 29.94 in 1.2 mi ESE 3.5 mph - 0.10 in Snow Light Snow
5:20 AM 33.8 °F 29.6 °F 30.2 °F 87% 29.91 in 1.5 mi East 4.6 mph - 0.04 in Snow Light Snow
5:54 AM 33.1 °F 30.0 °F 30.9 °F 92% 29.91 in 1.5 mi ENE 3.5 mph - 0.10 in Snow Light Snow
6:01 AM 33.8 °F 29.6 °F 30.2 °F 87% 29.88 in 2.0 mi East 4.6 mph - 0.00 in Snow Light Snow
6:10 AM 33.8 °F 30.8 °F 30.2 °F 87% 29.88 in 1.8 mi East 3.5 mph - 0.02 in Snow Light Snow
6:15 AM 33.8 °F - 32.0 °F 93% 29.88 in 2.0 mi Calm Calm - 0.03 in Snow Light Snow
6:25 AM 33.8 °F - 32.0 °F 93% 29.88 in 5.0 mi Calm Calm - 0.04 in Snow Light Snow
6:54 AM 33.8 °F 28.6 °F 30.2 °F 87% 29.85 in 10.0 mi East 5.8 mph - N/A Rain , Snow Light Rain
7:18 AM 33.8 °F 27.7 °F 30.2 °F 87% 29.85 in 1.5 mi North 6.9 mph - 0.01 in Rain , Snow Light Rain
7:31 AM 32.0 °F 25.6 °F 30.2 °F 93% 29.85 in 1.5 mi NNW 6.9 mph - 0.02 in Snow Light Snow
7:52 AM 32.0 °F 25.6 °F 30.2 °F 93% 29.84 in 1.2 mi North 6.9 mph - 0.03 in Snow Light Snow
7:54 AM 32.0 °F 26.4 °F 30.9 °F 96% 29.85 in 1.2 mi NNW 5.8 mph - 0.03 in Snow Light Snow
8:13 AM 32.0 °F 24.8 °F 30.2 °F 93% 29.83 in 2.0 mi NNW 8.1 mph - 0.00 in Snow Light Snow
8:31 AM 32.0 °F 25.6 °F 30.2 °F 93% 29.84 in 1.5 mi NNW 6.9 mph - 0.01 in Snow Light Snow
8:50 AM 32.0 °F 26.4 °F 30.2 °F 93% 29.84 in 0.5 mi NNW 5.8 mph - 0.03 in Fog , Snow Snow
8:54 AM 32.0 °F 26.4 °F 30.9 °F 96% 29.86 in 0.5 mi NNW 5.8 mph - 0.04 in Fog , Snow Snow
9:01 AM 32.0 °F 27.5 °F 30.2 °F 93% 29.84 in 0.5 mi NNW 4.6 mph - 0.01 in Fog , Snow Snow
9:15 AM 32.0 °F 26.4 °F 30.2 °F 93% 29.83 in 0.8 mi North 5.8 mph - 0.02 in Fog , Snow Light Snow
9:29 AM 33.8 °F 27.7 °F 30.2 °F 87% 29.84 in 1.2 mi North 6.9 mph - 0.03 in Snow Light Snow
9:34 AM 33.8 °F 27.7 °F 30.2 °F 87% 29.84 in 1.8 mi North 6.9 mph - 0.03 in Snow Light Snow
9:52 AM 33.8 °F 27.7 °F 30.2 °F 87% 29.84 in 1.0 mi North 6.9 mph - 0.05 in Snow Light Snow
9:54 AM 33.1 °F 27.7 °F 30.9 °F 92% 29.85 in 1.0 mi North 5.8 mph - 0.05 in Snow Light Snow
10:02 AM 33.8 °F 28.6 °F 30.2 °F 87% 29.83 in 0.8 mi North 5.8 mph - 0.01 in Snow Light Snow
10:20 AM 33.8 °F 30.8 °F 32.0 °F 93% 29.83 in 1.0 mi North 3.5 mph - 0.02 in Snow Light Snow
10:44 AM 33.8 °F 29.6 °F 32.0 °F 93% 29.82 in 1.8 mi North 4.6 mph - 0.03 in Snow Light Snow
10:51 AM 33.8 °F 29.6 °F 32.0 °F 93% 29.82 in 2.5 mi North 4.6 mph - N/A Snow Light Snow
10:54 AM 33.1 °F 28.7 °F 32.0 °F 96% 29.83 in 2.5 mi North 4.6 mph - 0.03 in Snow Light Snow
11:03 AM 33.8 °F 29.6 °F 32.0 °F 93% 29.82 in 3.0 mi NNE 4.6 mph - 0.00 in Snow Light Snow
11:12 AM 33.8 °F 29.6 °F 32.0 °F 93% 29.82 in 4.0 mi North 4.6 mph - 0.00 in Snow Light Snow
11:54 AM 34.0 °F 28.0 °F 32.0 °F 92% 29.84 in 9.0 mi North 6.9 mph - 0.01 in   Overcast
12:07 PM 33.8 °F 27.0 °F 32.0 °F 93% 29.82 in 2.5 mi NNW 8.1 mph - 0.00 in Snow Light Snow
12:17 PM 33.8 °F 27.7 °F 32.0 °F 93% 29.82 in 1.8 mi North 6.9 mph - 0.00 in Snow Light Snow
12:38 PM 33.8 °F 27.7 °F 30.2 °F 87% 29.81 in 1.5 mi North 6.9 mph - 0.01 in Snow Light Snow
12:54 PM 33.8 °F 27.7 °F 30.2 °F 87% 29.82 in 1.8 mi North 6.9 mph - N/A Snow Light Snow
1:05 PM 33.8 °F 27.7 °F 30.2 °F 87% 29.82 in 2.0 mi North 6.9 mph - 0.00 in Snow Light Snow
1:12 PM 33.8 °F 27.7 °F 30.2 °F 87% 29.82 in 1.5 mi North 6.9 mph - 0.00 in Snow Light Snow
1:29 PM 33.8 °F 27.0 °F 30.2 °F 87% 29.82 in 2.0 mi North 8.1 mph - 0.01 in Snow Light Snow
1:39 PM 33.8 °F 27.0 °F 30.2 °F 87% 29.82 in 3.0 mi North 8.1 mph - 0.01 in Snow Light Snow
1:54 PM 33.1 °F 26.1 °F 30.9 °F 92% 29.84 in 5.0 mi NNW 8.1 mph - 0.01 in Snow Light Snow
2:04 PM 33.8 °F 26.4 °F 30.2 °F 87% 29.84 in 5.0 mi NNW 9.2 mph - 0.00 in Snow Light Snow
2:20 PM 33.8 °F 26.4 °F 30.2 °F 87% 29.85 in 2.0 mi NNW 9.2 mph - 0.00 in Snow Light Snow
2:42 PM 33.8 °F 26.4 °F 30.2 °F 87% 29.86 in 3.0 mi NNW 9.2 mph - 0.00 in Snow Light Snow
2:54 PM 33.1 °F 24.9 °F 30.9 °F 92% 29.88 in 3.0 mi North 10.4 mph - 0.00 in Snow Light Snow
3:03 PM 33.8 °F 24.8 °F 30.2 °F 87% 29.87 in 2.5 mi NNW 12.7 mph - N/A Snow Light Snow
3:22 PM 33.8 °F 24.8 °F 32.0 °F 93% 29.88 in 4.0 mi NNW 12.7 mph - N/A   Light Drizzle
3:33 PM 33.8 °F 23.5 °F 30.2 °F 87% 29.89 in 4.0 mi NNW 16.1 mph 24.2 mph 0.00 in   Light Ice Pellets
3:42 PM 32.0 °F 20.5 °F 30.2 °F 93% 29.89 in 4.0 mi NNW 18.4 mph - 0.00 in   Overcast
3:54 PM 32.0 °F 21.6 °F 30.0 °F 92% 29.91 in 6.0 mi NNW 15.0 mph - 0.00 in   Overcast
4:09 PM 32.0 °F 21.2 °F 30.2 °F 93% 29.91 in 8.0 mi NNW 16.1 mph - N/A   Overcast
4:54 PM 32.0 °F 22.1 °F 28.9 °F 88% 29.95 in 6.0 mi North 13.8 mph - 0.00 in Snow Light Snow
5:52 PM 30.2 °F 20.8 °F 28.4 °F 93% 29.96 in 2.5 mi North 11.5 mph - 0.00 in Snow Light Snow
5:54 PM 30.9 °F 22.2 °F 28.0 °F 89% 29.97 in 3.0 mi North 10.4 mph - 0.00 in Snow Light Snow
6:22 PM 30.2 °F 19.8 °F 28.4 °F 93% 29.97 in 9.0 mi North 13.8 mph - N/A Snow Light Snow
6:54 PM 30.9 °F 21.2 °F 28.0 °F 89% 30.00 in 9.0 mi North 12.7 mph - 0.00 in Snow Light Snow
7:54 PM 30.9 °F 22.2 °F 28.0 °F 89% 30.04 in 10.0 mi North 10.4 mph - 0.00 in   Overcast
8:54 PM 30.0 °F 21.7 °F 27.0 °F 88% 30.06 in 10.0 mi North 9.2 mph - N/A   Overcast
9:28 PM 30.2 °F 24.3 °F 26.6 °F 86% 30.05 in 10.0 mi NNE 5.8 mph - N/A   Overcast
9:54 PM 30.2 °F 24.3 °F 26.6 °F 86% 30.05 in 10.0 mi NNE 5.8 mph - N/A   Overcast
10:54 PM 30.0 °F 23.2 °F 26.1 °F 85% 30.09 in 10.0 mi North 6.9 mph - N/A   Overcast
11:54 PM 28.9 °F 23.9 °F 26.1 °F 89% 30.08 in 10.0 mi NNE 4.6 mph - N/A   Overcast